This is the latest recevied weather packets stored in our database for station/object E70ARA-3. If no packets are shown the sender has not sent any weather packets the latest 10 day(s).
| Time | Temp. | Humidity | Pressure | Rain* | Wind** | Luminosity | Snow |
|---|---|---|---|---|---|---|---|
| 1777486368 | 15° C | 63% | 1031.1 hPa | - | - | - | - |
| 1777485468 | 14.44° C | 61% | 1030.9 hPa | - | - | - | - |
| 1777484568 | 15.56° C | 61% | 1030.9 hPa | - | - | - | - |
| 1777483667 | 16.67° C | 58% | 1030.6 hPa | - | - | - | - |
| 1777482767 | 16.11° C | 59% | 1030.3 hPa | - | - | - | - |
| 1777481867 | 15.56° C | 59% | 1030.3 hPa | - | - | - | - |
| 1777480967 | 15.56° C | 59% | 1030.2 hPa | - | - | - | - |
| 1777480066 | 16.11° C | 61% | 1029.9 hPa | - | - | - | - |
| 1777479166 | 17.22° C | 61% | 1029.7 hPa | - | - | - | - |
| 1777478266 | 16.67° C | 56% | 1029.7 hPa | - | - | - | - |
| 1777477365 | 17.22° C | 51% | 1029.6 hPa | - | - | - | - |
| 1777476465 | 17.78° C | 51% | 1029.4 hPa | - | - | - | - |
| 1777475565 | 17.78° C | 49% | 1029.3 hPa | - | - | - | - |
| 1777474664 | 17.78° C | 46% | 1029.2 hPa | - | - | - | - |
| 1777473764 | 18.33° C | 45% | 1029.2 hPa | - | - | - | - |
| 1777472864 | 18.89° C | 44% | 1029 hPa | - | - | - | - |
| 1777471964 | 20.56° C | 41% | 1028.8 hPa | - | - | - | - |
| 1777471064 | 20° C | 40% | 1028.6 hPa | - | - | - | - |
| 1777470167 | 21.11° C | 38% | 1028.5 hPa | - | - | - | - |
| 1777469267 | 21.67° C | 37% | 1028.5 hPa | - | - | - | - |
| 1777468367 | 21.67° C | 38% | 1028.4 hPa | - | - | - | - |
| 1777467467 | 22.22° C | 36% | 1028.5 hPa | - | - | - | - |
| 1777464766 | 23.33° C | 32% | 1028.5 hPa | - | - | - | - |
| 1777463866 | 23.33° C | 32% | 1028.5 hPa | - | - | - | - |
| 1777462966 | 22.22° C | 33% | 1028.6 hPa | - | - | - | - |
* Rain since midnight (hover to see other rain measurements)
** Current wind speed in m/s (hover to see current wind gust speed)